sat.trackr.live / text

‹ back to catalog

GSAT-10 (GAGAN/PRN 128)

NORAD 38779 · 2012-051B

PAYLOAD ACTIVE UNKNOWN

§ Identity

Operator
Country
IND
Launch date
2012-09-28
Launch site
FRGUI
Launch vehicle
Mass (kg)
RCS (m²)
13.85

Purposes: comms, nav

External: N2YO · Heavens-Above · Gunter

§ Orbital elements

Epoch: 2026-09-20T03:37:48.337824Z

Period
1,436.08 min
Inclination
0.0356°
Eccentricity
0.0005391
Mean motion
1.00272862 rev/d
Perigee alt
35,763.6 km
Apogee alt
35,809.0 km
Semi-major
42,164.4 km
B*
0.0000e+0
RAAN
264.3465°
Arg perigee
210.2363°
Mean anomaly
21.9511°
Rev number
5,105

§ Raw data

GSAT-10 (GAGAN/PRN 128)1 38779U 12051B   26263.15125391 -.00000170  00000+0  00000+0 0  99962 38779   0.0356 264.3465 0005391 210.2363  21.9511  1.00272862 51053

JSON: /api/v1/satellites/38779 · /tle

For live sub-satellite position, see the globe view (requires WebGL).

§ Visibility from observer

Set your observer location to see the next 7 days of passes ≥ 10°. The values pass through the URL so the page stays shareable.

No JS? Fill the form by hand. The geolocation button needs JavaScript.